Torna al catalogo

STARLINK-31773

AttivoComunicazioniVLEO
NORAD 59429·PAYLOAD·🇺🇸 United States

Lanciato Apr 7, 2024 da Vandenberg Space Force Base

Loading…

Prossimi Passaggi (prossime 24 ore)

TLE

AggiornatoSource: CelesTrak SupGP

Epoca: Sep 15, 2026, 02:07 UTC

1 59429C 24065J   26258.08868056  .00015195  00000+0  44936-3 0  2587
2 59429  53.1577 122.7183 0001318  87.6036   9.7395 15.34353664    10

Traccia STARLINK-31773 in tempo reale con AllMySat

Download on the App Store